Year,Month,Day,Hour,Minute,Value (Times are PST for temperature in C)
2009,07,29,00,00,18.40
2009,07,29,00,01,18.40
2009,07,29,00,02,18.40
2009,07,29,00,03,18.30
2009,07,29,00,04,18.30
2009,07,29,00,05,18.30
2009,07,29,00,06,18.30
2009,07,29,00,07,18.30
2009,07,29,00,08,18.30
2009,07,29,00,09,18.30
2009,07,29,00,10,18.30
2009,07,29,00,11,18.30
2009,07,29,00,12,18.30
2009,07,29,00,13,18.30
2009,07,29,00,14,18.30
2009,07,29,00,15,18.30
2009,07,29,00,16,18.30
2009,07,29,00,17,18.30
2009,07,29,00,18,18.30
2009,07,29,00,19,18.30
2009,07,29,00,20,18.30
2009,07,29,00,21,18.20
2009,07,29,00,22,18.20
2009,07,29,00,23,18.20
2009,07,29,00,24,18.20
2009,07,29,00,25,18.20
2009,07,29,00,26,18.20
2009,07,29,00,27,18.20
2009,07,29,00,28,18.20
2009,07,29,00,29,18.10
2009,07,29,00,30,18.10
2009,07,29,00,31,18.10
2009,07,29,00,32,18.00
2009,07,29,00,33,17.90
2009,07,29,00,34,17.90
2009,07,29,00,35,17.90
2009,07,29,00,36,17.90
2009,07,29,00,37,17.80
2009,07,29,00,38,17.80
2009,07,29,00,39,17.80
2009,07,29,00,40,17.70
2009,07,29,00,41,17.70
2009,07,29,00,42,17.70
2009,07,29,00,43,17.70
2009,07,29,00,44,17.60
2009,07,29,00,45,17.60
2009,07,29,00,46,17.60
2009,07,29,00,47,17.60
2009,07,29,00,48,17.60
2009,07,29,00,49,17.60
2009,07,29,00,50,17.50
2009,07,29,00,51,17.50
2009,07,29,00,52,17.50
2009,07,29,00,53,17.50
2009,07,29,00,54,17.50
2009,07,29,00,55,17.60
2009,07,29,00,56,17.60
2009,07,29,00,57,17.60
2009,07,29,00,58,17.60
2009,07,29,00,59,17.70
2009,07,29,01,00,17.70
2009,07,29,01,01,17.70
2009,07,29,01,02,17.70
2009,07,29,01,03,17.70
2009,07,29,01,04,17.70
2009,07,29,01,05,17.70
2009,07,29,01,06,17.70
2009,07,29,01,07,17.70
2009,07,29,01,08,17.70
2009,07,29,01,09,17.70
2009,07,29,01,10,17.70
2009,07,29,01,11,17.70
2009,07,29,01,12,17.70
2009,07,29,01,13,17.70
2009,07,29,01,14,17.70
2009,07,29,01,15,17.70
2009,07,29,01,16,17.80
2009,07,29,01,17,17.80
2009,07,29,01,18,17.90
2009,07,29,01,19,17.90
2009,07,29,01,20,17.90
2009,07,29,01,21,18.10
2009,07,29,01,22,18.10
2009,07,29,01,23,18.10
2009,07,29,01,24,18.10
2009,07,29,01,25,18.10
2009,07,29,01,26,18.10
2009,07,29,01,27,18.10
2009,07,29,01,28,18.10
2009,07,29,01,29,18.10
2009,07,29,01,30,18.10
2009,07,29,01,31,18.10
2009,07,29,01,32,18.10
2009,07,29,01,33,18.10
2009,07,29,01,34,18.10
2009,07,29,01,35,18.10
2009,07,29,01,36,18.20
2009,07,29,01,37,18.20
2009,07,29,01,38,18.20
2009,07,29,01,39,18.20
2009,07,29,01,40,18.20
2009,07,29,01,41,18.20
2009,07,29,01,42,18.20
2009,07,29,01,43,18.40
2009,07,29,01,44,18.50
2009,07,29,01,45,18.60
2009,07,29,01,46,18.60
2009,07,29,01,47,18.60
2009,07,29,01,48,18.60
2009,07,29,01,49,18.60
2009,07,29,01,50,18.60
2009,07,29,01,51,18.60
2009,07,29,01,52,18.60
2009,07,29,01,53,18.70
2009,07,29,01,54,18.70
2009,07,29,01,55,18.60
2009,07,29,01,56,18.60
2009,07,29,01,57,18.60
2009,07,29,01,58,18.50
2009,07,29,01,59,18.40
2009,07,29,02,00,18.40
2009,07,29,02,01,18.20
2009,07,29,02,02,18.20
2009,07,29,02,03,18.20
2009,07,29,02,04,18.20
2009,07,29,02,05,18.20
2009,07,29,02,06,18.20
2009,07,29,02,07,18.20
2009,07,29,02,08,18.20
2009,07,29,02,09,18.10
2009,07,29,02,10,18.10
2009,07,29,02,11,18.10
2009,07,29,02,12,18.00
2009,07,29,02,13,17.90
2009,07,29,02,14,17.90
2009,07,29,02,15,17.90
2009,07,29,02,16,17.90
2009,07,29,02,17,17.90
2009,07,29,02,18,17.80
2009,07,29,02,19,17.70
2009,07,29,02,20,17.70
2009,07,29,02,21,17.60
2009,07,29,02,22,17.60
2009,07,29,02,23,17.60
2009,07,29,02,24,17.70
2009,07,29,02,25,17.80
2009,07,29,02,26,17.90
2009,07,29,02,27,17.90
2009,07,29,02,28,17.90
2009,07,29,02,29,17.90
2009,07,29,02,30,17.90
2009,07,29,02,31,17.90
2009,07,29,02,32,17.90
2009,07,29,02,33,17.90
2009,07,29,02,34,17.90
2009,07,29,02,35,17.90
2009,07,29,02,36,17.90
2009,07,29,02,37,17.90
2009,07,29,02,38,17.90
2009,07,29,02,39,17.90
2009,07,29,02,40,17.80
2009,07,29,02,41,17.80
2009,07,29,02,42,17.80
2009,07,29,02,43,17.80
2009,07,29,02,44,17.80
2009,07,29,02,45,17.80
2009,07,29,02,46,17.80
2009,07,29,02,47,17.80
2009,07,29,02,48,17.80
2009,07,29,02,49,17.70
2009,07,29,02,50,17.70
2009,07,29,02,51,17.70
2009,07,29,02,52,17.70
2009,07,29,02,53,17.70
2009,07,29,02,54,17.70
2009,07,29,02,55,17.70
2009,07,29,02,56,17.70
2009,07,29,02,57,17.70
2009,07,29,02,58,17.70
2009,07,29,02,59,17.70
2009,07,29,03,00,17.70
2009,07,29,03,01,17.70
2009,07,29,03,02,17.70
2009,07,29,03,03,17.70
2009,07,29,03,04,17.70
2009,07,29,03,05,17.60
2009,07,29,03,06,17.60
2009,07,29,03,07,17.50
2009,07,29,03,08,17.50
2009,07,29,03,09,17.50
2009,07,29,03,10,17.50
2009,07,29,03,11,17.50
2009,07,29,03,12,17.40
2009,07,29,03,13,17.40
2009,07,29,03,14,17.40
2009,07,29,03,15,17.40
2009,07,29,03,16,17.40
2009,07,29,03,17,17.40
2009,07,29,03,18,17.40
2009,07,29,03,19,17.30
2009,07,29,03,20,17.40
2009,07,29,03,21,17.40
2009,07,29,03,22,17.50
2009,07,29,03,23,17.60
2009,07,29,03,24,17.70
2009,07,29,03,25,17.70
2009,07,29,03,26,17.70
2009,07,29,03,27,17.80
2009,07,29,03,28,17.80
2009,07,29,03,29,17.80
2009,07,29,03,30,17.80
2009,07,29,03,31,17.90
2009,07,29,03,32,17.90
2009,07,29,03,33,17.80
2009,07,29,03,34,17.80
2009,07,29,03,35,17.80
2009,07,29,03,36,17.70
2009,07,29,03,37,17.70
2009,07,29,03,38,17.60
2009,07,29,03,39,17.60
2009,07,29,03,40,17.50
2009,07,29,03,41,17.40
2009,07,29,03,42,17.40
2009,07,29,03,43,17.30
2009,07,29,03,44,17.30
2009,07,29,03,45,17.30
2009,07,29,03,46,17.20
2009,07,29,03,47,17.20
2009,07,29,03,48,17.10
2009,07,29,03,49,17.10
2009,07,29,03,50,17.00
2009,07,29,03,51,17.00
2009,07,29,03,52,17.00
2009,07,29,03,53,17.00
2009,07,29,03,54,16.90
2009,07,29,03,55,16.90
2009,07,29,03,56,16.90
2009,07,29,03,57,16.90
2009,07,29,03,58,17.00
2009,07,29,03,59,17.00
2009,07,29,04,00,17.00
2009,07,29,04,01,17.00
2009,07,29,04,02,17.10
2009,07,29,04,03,17.10
2009,07,29,04,04,17.20
2009,07,29,04,05,17.20
2009,07,29,04,06,17.20
2009,07,29,04,07,17.20
2009,07,29,04,08,17.20
2009,07,29,04,09,17.20
2009,07,29,04,10,17.30
2009,07,29,04,11,17.30
2009,07,29,04,12,17.30
2009,07,29,04,13,17.30
2009,07,29,04,14,17.30
2009,07,29,04,15,17.30
2009,07,29,04,16,17.30
2009,07,29,04,17,17.30
2009,07,29,04,18,17.30
2009,07,29,04,19,17.30
2009,07,29,04,20,17.30
2009,07,29,04,21,17.30
2009,07,29,04,22,17.20
2009,07,29,04,23,17.30
2009,07,29,04,24,17.30
2009,07,29,04,25,17.30
2009,07,29,04,26,17.30
2009,07,29,04,27,17.30
2009,07,29,04,28,17.30
2009,07,29,04,29,17.30
2009,07,29,04,30,17.30
2009,07,29,04,31,17.30
2009,07,29,04,32,17.30
2009,07,29,04,33,17.30
2009,07,29,04,34,17.30
2009,07,29,04,35,17.30
2009,07,29,04,36,17.30
2009,07,29,04,37,17.30
2009,07,29,04,38,17.30
2009,07,29,04,39,17.30
2009,07,29,04,40,17.30
2009,07,29,04,41,17.30
2009,07,29,04,42,17.30
2009,07,29,04,43,17.30
2009,07,29,04,44,17.30
2009,07,29,04,45,17.30
2009,07,29,04,46,17.30
2009,07,29,04,47,17.30
2009,07,29,04,48,17.30
2009,07,29,04,49,17.30
2009,07,29,04,50,17.30
2009,07,29,04,51,17.30
2009,07,29,04,52,17.30
2009,07,29,04,53,17.30
2009,07,29,04,54,17.30
2009,07,29,04,55,17.30
2009,07,29,04,56,17.30
2009,07,29,04,57,17.30
2009,07,29,04,58,17.30
2009,07,29,04,59,17.30
2009,07,29,05,00,17.30
2009,07,29,05,01,17.20
2009,07,29,05,02,17.20
2009,07,29,05,03,17.20
2009,07,29,05,04,17.20
2009,07,29,05,05,17.20
2009,07,29,05,06,17.20
2009,07,29,05,07,17.20
2009,07,29,05,08,17.20
2009,07,29,05,09,17.20
2009,07,29,05,10,17.20
2009,07,29,05,11,17.20
2009,07,29,05,12,17.20
2009,07,29,05,13,17.20
2009,07,29,05,14,17.10
2009,07,29,05,15,17.10
2009,07,29,05,16,17.10
2009,07,29,05,17,17.10
2009,07,29,05,18,17.10
2009,07,29,05,19,17.10
2009,07,29,05,20,17.00
2009,07,29,05,21,17.00
2009,07,29,05,22,17.00
2009,07,29,05,23,17.00
2009,07,29,05,24,17.00
2009,07,29,05,25,17.00
2009,07,29,05,26,17.00
2009,07,29,05,27,17.00
2009,07,29,05,28,17.00
2009,07,29,05,29,17.00
2009,07,29,05,30,17.00
2009,07,29,05,31,17.00
2009,07,29,05,32,16.90
2009,07,29,05,33,16.90
2009,07,29,05,34,16.90
2009,07,29,05,35,16.90
2009,07,29,05,36,16.90
2009,07,29,05,37,16.90
2009,07,29,05,38,16.90
2009,07,29,05,39,16.80
2009,07,29,05,40,16.80
2009,07,29,05,41,16.80
2009,07,29,05,42,16.80
2009,07,29,05,43,16.90
2009,07,29,05,44,16.80
2009,07,29,05,45,16.80
2009,07,29,05,46,16.80
2009,07,29,05,47,16.80
2009,07,29,05,48,16.80
2009,07,29,05,49,16.80
2009,07,29,05,50,16.80
2009,07,29,05,51,16.80
2009,07,29,05,52,16.80
2009,07,29,05,53,16.80
2009,07,29,05,54,16.80
2009,07,29,05,55,16.80
2009,07,29,05,56,16.80
2009,07,29,05,57,16.80
2009,07,29,05,58,16.80
2009,07,29,05,59,16.80
2009,07,29,06,00,16.80
2009,07,29,06,01,16.80
2009,07,29,06,02,16.80
2009,07,29,06,03,16.80
2009,07,29,06,04,16.80
2009,07,29,06,05,16.80
2009,07,29,06,06,16.80
2009,07,29,06,07,16.80
2009,07,29,06,08,16.80
2009,07,29,06,09,16.80
2009,07,29,06,10,16.80
2009,07,29,06,11,16.80
2009,07,29,06,12,16.80
2009,07,29,06,13,16.70
2009,07,29,06,14,16.70
2009,07,29,06,15,16.70
2009,07,29,06,16,16.70
2009,07,29,06,17,16.70
2009,07,29,06,18,16.70
2009,07,29,06,19,16.70
2009,07,29,06,20,16.70
2009,07,29,06,21,16.70
2009,07,29,06,22,16.70
2009,07,29,06,23,16.70
2009,07,29,06,24,16.70
2009,07,29,06,25,16.70
2009,07,29,06,26,16.70
2009,07,29,06,27,16.70
2009,07,29,06,28,16.70
2009,07,29,06,29,16.70
2009,07,29,06,30,16.70
2009,07,29,06,31,16.70
2009,07,29,06,32,16.70
2009,07,29,06,33,16.70
2009,07,29,06,34,16.80
2009,07,29,06,35,16.80
2009,07,29,06,36,16.80
2009,07,29,06,37,16.80
2009,07,29,06,38,16.80
2009,07,29,06,39,16.80
2009,07,29,06,40,16.90
2009,07,29,06,41,16.90
2009,07,29,06,42,16.90
2009,07,29,06,43,16.90
2009,07,29,06,44,16.90
2009,07,29,06,45,16.90
2009,07,29,06,46,16.90
2009,07,29,06,47,16.90
2009,07,29,06,48,16.80
2009,07,29,06,49,16.70
2009,07,29,06,50,16.70
2009,07,29,06,51,16.60
2009,07,29,06,52,16.50
2009,07,29,06,53,16.40
2009,07,29,06,54,16.40
2009,07,29,06,55,16.40
2009,07,29,06,56,16.40
2009,07,29,06,57,16.40
2009,07,29,06,58,16.40
2009,07,29,06,59,16.50
2009,07,29,07,00,16.60
2009,07,29,07,01,16.60
2009,07,29,07,02,16.70
2009,07,29,07,03,16.70
2009,07,29,07,04,16.80
2009,07,29,07,05,16.80
2009,07,29,07,06,16.90
2009,07,29,07,07,16.90
2009,07,29,07,08,17.00
2009,07,29,07,09,17.00
2009,07,29,07,10,17.10
2009,07,29,07,11,17.10
2009,07,29,07,12,17.20
2009,07,29,07,13,17.30
2009,07,29,07,14,17.30
2009,07,29,07,15,17.30
2009,07,29,07,16,17.30
2009,07,29,07,17,17.40
2009,07,29,07,18,17.50
2009,07,29,07,19,17.60
2009,07,29,07,20,17.70
2009,07,29,07,21,17.80
2009,07,29,07,22,17.90
2009,07,29,07,23,17.90
2009,07,29,07,24,17.90
2009,07,29,07,25,18.00
2009,07,29,07,26,18.10
2009,07,29,07,27,18.20
2009,07,29,07,28,18.20
2009,07,29,07,29,18.30
2009,07,29,07,30,18.40
2009,07,29,07,31,18.50
2009,07,29,07,32,18.50
2009,07,29,07,33,18.60
2009,07,29,07,34,18.70
2009,07,29,07,35,18.80
2009,07,29,07,36,18.80
2009,07,29,07,37,18.90
2009,07,29,07,38,18.90
2009,07,29,07,39,19.00
2009,07,29,07,40,19.10
2009,07,29,07,41,19.10
2009,07,29,07,42,19.10
2009,07,29,07,43,19.10
2009,07,29,07,44,19.10
2009,07,29,07,45,19.10
2009,07,29,07,46,19.10
2009,07,29,07,47,18.90
2009,07,29,07,48,18.90
2009,07,29,07,49,18.90
2009,07,29,07,50,18.90
2009,07,29,07,51,18.90
2009,07,29,07,52,18.90
2009,07,29,07,53,18.90
2009,07,29,07,54,18.80
2009,07,29,07,55,18.80
2009,07,29,07,56,18.70
2009,07,29,07,57,18.70
2009,07,29,07,58,18.70
2009,07,29,07,59,18.70
2009,07,29,08,00,18.70
2009,07,29,08,01,18.70
2009,07,29,08,02,18.70
2009,07,29,08,03,18.80
2009,07,29,08,04,18.80
2009,07,29,08,05,18.80
2009,07,29,08,06,18.80
2009,07,29,08,07,18.80
2009,07,29,08,08,18.80
2009,07,29,08,09,18.80
2009,07,29,08,10,18.80
2009,07,29,08,11,18.80
2009,07,29,08,12,18.80
2009,07,29,08,13,18.70
2009,07,29,08,14,18.70
2009,07,29,08,15,18.70
2009,07,29,08,16,18.70
2009,07,29,08,17,18.70
2009,07,29,08,18,18.70
2009,07,29,08,19,18.70
2009,07,29,08,20,18.70
2009,07,29,08,21,18.70
2009,07,29,08,22,18.70
2009,07,29,08,23,18.70
2009,07,29,08,24,18.70
2009,07,29,08,25,18.70
2009,07,29,08,26,18.70
2009,07,29,08,27,18.70
2009,07,29,08,28,18.70
2009,07,29,08,29,18.80
2009,07,29,08,30,18.80
2009,07,29,08,31,18.90
2009,07,29,08,32,18.90
2009,07,29,08,33,18.90
2009,07,29,08,34,19.00
2009,07,29,08,35,19.10
2009,07,29,08,36,19.10
2009,07,29,08,37,19.10
2009,07,29,08,38,19.00
2009,07,29,08,39,18.90
2009,07,29,08,40,18.90
2009,07,29,08,41,18.70
2009,07,29,08,42,18.60
2009,07,29,08,43,18.50
2009,07,29,08,44,18.40
2009,07,29,08,45,18.30
2009,07,29,08,46,18.20
2009,07,29,08,47,18.00
2009,07,29,08,48,17.90
2009,07,29,08,49,17.90
2009,07,29,08,50,17.90
2009,07,29,08,51,17.90
2009,07,29,08,52,18.00
2009,07,29,08,53,18.10
2009,07,29,08,54,18.20
2009,07,29,08,55,18.20
2009,07,29,08,56,18.30
2009,07,29,08,57,18.30
2009,07,29,08,58,18.30
2009,07,29,08,59,18.20
2009,07,29,09,00,18.20
2009,07,29,09,01,18.20
2009,07,29,09,02,18.20
2009,07,29,09,03,18.30
2009,07,29,09,04,18.30
2009,07,29,09,05,18.40
2009,07,29,09,06,18.60
2009,07,29,09,07,18.80
2009,07,29,09,08,18.90
2009,07,29,09,09,19.10
2009,07,29,09,10,19.10
2009,07,29,09,11,19.00
2009,07,29,09,12,18.90
2009,07,29,09,13,18.80
2009,07,29,09,14,18.80
2009,07,29,09,15,18.80
2009,07,29,09,16,18.90
2009,07,29,09,17,18.90
2009,07,29,09,18,19.00
2009,07,29,09,19,19.10
2009,07,29,09,20,19.10
2009,07,29,09,21,19.10
2009,07,29,09,22,19.10
2009,07,29,09,23,19.10
2009,07,29,09,24,19.10
2009,07,29,09,25,19.20
2009,07,29,09,26,19.20
2009,07,29,09,27,19.20
2009,07,29,09,28,19.30
2009,07,29,09,29,19.30
2009,07,29,09,30,19.40
2009,07,29,09,31,19.40
2009,07,29,09,32,19.50
2009,07,29,09,33,19.60
2009,07,29,09,34,19.60
2009,07,29,09,35,19.60
2009,07,29,09,36,19.70
2009,07,29,09,37,19.80
2009,07,29,09,38,19.80
2009,07,29,09,39,19.80
2009,07,29,09,40,19.90
2009,07,29,09,41,19.90
2009,07,29,09,42,20.10
2009,07,29,09,43,20.10
2009,07,29,09,44,20.10
2009,07,29,09,45,20.20
2009,07,29,09,46,20.20
2009,07,29,09,47,20.40
2009,07,29,09,48,20.70
2009,07,29,09,49,20.90
2009,07,29,09,50,21.10
2009,07,29,09,51,21.40
2009,07,29,09,52,21.60
2009,07,29,09,53,21.80
2009,07,29,09,54,22.00
2009,07,29,09,55,22.10
2009,07,29,09,56,22.20
2009,07,29,09,57,22.30
2009,07,29,09,58,22.50
2009,07,29,09,59,22.60
2009,07,29,10,00,22.70
2009,07,29,10,01,22.90
2009,07,29,10,02,23.10
2009,07,29,10,03,23.30
2009,07,29,10,04,23.50
2009,07,29,10,05,23.60
2009,07,29,10,06,23.70
2009,07,29,10,07,23.80
2009,07,29,10,08,23.90
2009,07,29,10,09,24.00
2009,07,29,10,10,24.10
2009,07,29,10,11,24.10
2009,07,29,10,12,24.10
2009,07,29,10,13,24.20
2009,07,29,10,14,24.30
2009,07,29,10,15,24.30
2009,07,29,10,16,24.30
2009,07,29,10,17,24.30
2009,07,29,10,18,24.30
2009,07,29,10,19,24.30
2009,07,29,10,20,24.40
2009,07,29,10,21,24.40
2009,07,29,10,22,24.30
2009,07,29,10,23,24.30
2009,07,29,10,24,24.40
2009,07,29,10,25,24.40
2009,07,29,10,26,24.50
2009,07,29,10,27,24.60
2009,07,29,10,28,24.80
2009,07,29,10,29,24.90
2009,07,29,10,30,24.90
2009,07,29,10,31,24.90
2009,07,29,10,32,25.00
2009,07,29,10,33,24.90
2009,07,29,10,34,24.90
2009,07,29,10,35,25.00
2009,07,29,10,36,25.00
2009,07,29,10,37,25.00
2009,07,29,10,38,25.10
2009,07,29,10,39,25.10
2009,07,29,10,40,25.30
2009,07,29,10,41,25.40
2009,07,29,10,42,25.50
2009,07,29,10,43,25.60
2009,07,29,10,44,25.70
2009,07,29,10,45,25.80
2009,07,29,10,46,25.90
2009,07,29,10,47,25.90
2009,07,29,10,48,25.90
2009,07,29,10,49,25.90
2009,07,29,10,50,25.90
2009,07,29,10,51,26.00
2009,07,29,10,52,26.00
2009,07,29,10,53,26.10
2009,07,29,10,54,26.00
2009,07,29,10,55,26.10
2009,07,29,10,56,26.20
2009,07,29,10,57,26.20
2009,07,29,10,58,26.10
2009,07,29,10,59,26.00
2009,07,29,11,00,26.00
2009,07,29,11,01,26.00
2009,07,29,11,02,26.10
2009,07,29,11,03,26.20
2009,07,29,11,04,26.30
2009,07,29,11,05,26.30
2009,07,29,11,06,26.20
2009,07,29,11,07,26.10
2009,07,29,11,08,25.90
2009,07,29,11,09,25.90
2009,07,29,11,10,25.80
2009,07,29,11,11,25.80
2009,07,29,11,12,25.90
2009,07,29,11,13,25.90
2009,07,29,11,14,25.80
2009,07,29,11,15,25.70
2009,07,29,11,16,25.70
2009,07,29,11,17,25.80
2009,07,29,11,18,25.90
2009,07,29,11,19,26.00
2009,07,29,11,20,26.20
2009,07,29,11,21,26.40
2009,07,29,11,22,26.80
2009,07,29,11,23,27.00
2009,07,29,11,24,27.30
2009,07,29,11,25,27.50
2009,07,29,11,26,27.80
2009,07,29,11,27,28.00
2009,07,29,11,28,28.20
2009,07,29,11,29,28.40
2009,07,29,11,30,28.60
2009,07,29,11,31,28.70
2009,07,29,11,32,28.70
2009,07,29,11,33,28.80
2009,07,29,11,34,28.90
2009,07,29,11,35,28.90
2009,07,29,11,36,28.90
2009,07,29,11,37,29.10
2009,07,29,11,38,29.20
2009,07,29,11,39,29.20
2009,07,29,11,40,29.30
2009,07,29,11,41,29.30
2009,07,29,11,42,29.30
2009,07,29,11,43,29.30
2009,07,29,11,44,29.40
2009,07,29,11,45,29.40
2009,07,29,11,46,29.30
2009,07,29,11,47,29.20
2009,07,29,11,48,29.20
2009,07,29,11,49,29.20
2009,07,29,11,50,29.20
2009,07,29,11,51,29.30
2009,07,29,11,52,29.30
2009,07,29,11,53,29.30
2009,07,29,11,54,29.30
2009,07,29,11,55,29.30
2009,07,29,11,56,29.40
2009,07,29,11,57,29.40
2009,07,29,11,58,29.40
2009,07,29,11,59,29.50
2009,07,29,12,00,29.60
2009,07,29,12,01,29.70
2009,07,29,12,02,29.70
2009,07,29,12,03,29.70
2009,07,29,12,04,29.80
2009,07,29,12,05,29.80
2009,07,29,12,06,29.90
2009,07,29,12,07,29.90
2009,07,29,12,08,30.10
2009,07,29,12,09,30.10
2009,07,29,12,10,30.30
2009,07,29,12,11,30.30
2009,07,29,12,12,30.20
2009,07,29,12,13,30.20
2009,07,29,12,14,30.20
2009,07,29,12,15,30.20
2009,07,29,12,16,30.30
2009,07,29,12,17,30.30
2009,07,29,12,18,30.40
2009,07,29,12,19,30.30
2009,07,29,12,20,30.30
2009,07,29,12,21,30.30
2009,07,29,12,22,30.30
2009,07,29,12,23,30.20
2009,07,29,12,24,30.20
2009,07,29,12,25,30.10
2009,07,29,12,26,30.10
2009,07,29,12,27,30.10
2009,07,29,12,28,30.20
2009,07,29,12,29,30.30
2009,07,29,12,30,30.40
2009,07,29,12,31,30.40
2009,07,29,12,32,30.30
2009,07,29,12,33,30.30
2009,07,29,12,34,30.30
2009,07,29,12,35,30.30
2009,07,29,12,36,30.30
2009,07,29,12,37,30.50
2009,07,29,12,38,30.60
2009,07,29,12,39,30.60
2009,07,29,12,40,30.70
2009,07,29,12,41,30.70
2009,07,29,12,42,30.70
2009,07,29,12,43,30.70
2009,07,29,12,44,30.70
2009,07,29,12,45,30.70
2009,07,29,12,46,30.70
2009,07,29,12,47,30.80
2009,07,29,12,48,30.90
2009,07,29,12,49,31.10
2009,07,29,12,50,31.10
2009,07,29,12,51,31.10
2009,07,29,12,52,31.10
2009,07,29,12,53,31.00
2009,07,29,12,54,30.90
2009,07,29,12,55,30.90
2009,07,29,12,56,31.00
2009,07,29,12,57,31.10
2009,07,29,12,58,31.10
2009,07,29,12,59,31.10
2009,07,29,13,00,31.10
2009,07,29,13,01,31.10
2009,07,29,13,02,31.10
2009,07,29,13,03,31.20
2009,07,29,13,04,31.30
2009,07,29,13,05,31.30
2009,07,29,13,06,31.40
2009,07,29,13,07,31.40
2009,07,29,13,08,31.40
2009,07,29,13,09,31.50
2009,07,29,13,10,31.50
2009,07,29,13,11,31.60
2009,07,29,13,12,31.50
2009,07,29,13,13,31.50
2009,07,29,13,14,31.60
2009,07,29,13,15,31.60
2009,07,29,13,16,31.70
2009,07,29,13,17,31.70
2009,07,29,13,18,31.90
2009,07,29,13,19,32.10
2009,07,29,13,20,32.20
2009,07,29,13,21,32.40
2009,07,29,13,22,32.50
2009,07,29,13,23,32.60
2009,07,29,13,24,32.60
2009,07,29,13,25,32.60
2009,07,29,13,26,32.50
2009,07,29,13,27,32.50
2009,07,29,13,28,32.50
2009,07,29,13,29,32.50
2009,07,29,13,30,32.60
2009,07,29,13,31,32.70
2009,07,29,13,32,32.80
2009,07,29,13,33,33.00
2009,07,29,13,34,33.00
2009,07,29,13,35,33.00
2009,07,29,13,36,33.00
2009,07,29,13,37,32.90
2009,07,29,13,38,32.90
2009,07,29,13,39,33.00
2009,07,29,13,40,33.00
2009,07,29,13,41,32.90
2009,07,29,13,42,32.80
2009,07,29,13,43,32.80
2009,07,29,13,44,32.80
2009,07,29,13,45,32.60
2009,07,29,13,46,32.40
2009,07,29,13,47,32.10
2009,07,29,13,48,31.90
2009,07,29,13,49,31.80
2009,07,29,13,50,31.80
2009,07,29,13,51,32.00
2009,07,29,13,52,32.10
2009,07,29,13,53,32.20
2009,07,29,13,54,32.20
2009,07,29,13,55,32.10
2009,07,29,13,56,31.70
2009,07,29,13,57,31.10
2009,07,29,13,58,30.30
2009,07,29,13,59,29.60
2009,07,29,14,00,29.10
2009,07,29,14,01,28.80
2009,07,29,14,02,28.50
2009,07,29,14,03,28.30
2009,07,29,14,04,28.20
2009,07,29,14,05,28.20
2009,07,29,14,06,28.20
2009,07,29,14,07,28.30
2009,07,29,14,08,28.40
2009,07,29,14,09,28.50
2009,07,29,14,10,28.60
2009,07,29,14,11,28.60
2009,07,29,14,12,28.60
2009,07,29,14,13,28.80
2009,07,29,14,14,28.90
2009,07,29,14,15,29.10
2009,07,29,14,16,29.20
2009,07,29,14,17,29.20
2009,07,29,14,18,29.30
2009,07,29,14,19,29.40
2009,07,29,14,20,29.50
2009,07,29,14,21,29.70
2009,07,29,14,22,29.80
2009,07,29,14,23,30.00
2009,07,29,14,24,30.10
2009,07,29,14,25,30.20
2009,07,29,14,26,30.20
2009,07,29,14,27,30.20
2009,07,29,14,28,30.20
2009,07,29,14,29,30.10
2009,07,29,14,30,30.10
2009,07,29,14,31,30.10
2009,07,29,14,32,30.20
2009,07,29,14,33,30.10
2009,07,29,14,34,30.10
2009,07,29,14,35,30.10
2009,07,29,14,36,30.10
2009,07,29,14,37,30.10
2009,07,29,14,38,30.10
2009,07,29,14,39,30.10
2009,07,29,14,40,30.10
2009,07,29,14,41,30.10
2009,07,29,14,42,30.20
2009,07,29,14,43,30.20
2009,07,29,14,44,30.30
2009,07,29,14,45,30.40
2009,07,29,14,46,30.60
2009,07,29,14,47,30.70
2009,07,29,14,48,30.70
2009,07,29,14,49,30.80
2009,07,29,14,50,30.80
2009,07,29,14,51,30.90
2009,07,29,14,52,31.10
2009,07,29,14,53,31.10
2009,07,29,14,54,31.20
2009,07,29,14,55,31.20
2009,07,29,14,56,31.20
2009,07,29,14,57,31.10
2009,07,29,14,58,31.10
2009,07,29,14,59,31.20
2009,07,29,15,00,31.20
2009,07,29,15,01,31.40
2009,07,29,15,02,31.50
2009,07,29,15,03,31.60
2009,07,29,15,04,31.80
2009,07,29,15,05,31.80
2009,07,29,15,06,31.90
2009,07,29,15,07,32.00
2009,07,29,15,08,32.10
2009,07,29,15,09,32.10
2009,07,29,15,10,32.10
2009,07,29,15,11,32.10
2009,07,29,15,12,32.10
2009,07,29,15,13,32.20
2009,07,29,15,14,32.20
2009,07,29,15,15,32.20
2009,07,29,15,16,32.30
2009,07,29,15,17,32.40
2009,07,29,15,18,32.40
2009,07,29,15,19,32.50
2009,07,29,15,20,32.60
2009,07,29,15,21,32.70
2009,07,29,15,22,32.90
2009,07,29,15,23,33.00
2009,07,29,15,24,33.00
2009,07,29,15,25,33.00
2009,07,29,15,26,32.50
2009,07,29,15,27,31.90
2009,07,29,15,28,31.10
2009,07,29,15,29,30.20
2009,07,29,15,30,29.40
2009,07,29,15,31,29.00
2009,07,29,15,32,28.70
2009,07,29,15,33,28.10
2009,07,29,15,34,27.40
2009,07,29,15,35,26.90
2009,07,29,15,36,26.50
2009,07,29,15,37,26.10
2009,07,29,15,38,25.90
2009,07,29,15,39,25.60
2009,07,29,15,40,25.40
2009,07,29,15,41,25.20
2009,07,29,15,42,25.10
2009,07,29,15,43,25.00
2009,07,29,15,44,24.90
2009,07,29,15,45,25.00
2009,07,29,15,46,25.00
2009,07,29,15,47,25.10
2009,07,29,15,48,25.20
2009,07,29,15,49,25.40
2009,07,29,15,50,25.70
2009,07,29,15,51,26.00
2009,07,29,15,52,26.30
2009,07,29,15,53,26.50
2009,07,29,15,54,26.90
2009,07,29,15,55,27.20
2009,07,29,15,56,27.40
2009,07,29,15,57,27.60
2009,07,29,15,58,27.70
2009,07,29,15,59,27.90
2009,07,29,16,00,28.10
2009,07,29,16,01,28.30
2009,07,29,16,02,28.40
2009,07,29,16,03,28.60
2009,07,29,16,04,28.70
2009,07,29,16,05,28.80
2009,07,29,16,06,28.80
2009,07,29,16,07,28.80
2009,07,29,16,08,28.90
2009,07,29,16,09,29.00
2009,07,29,16,10,29.20
2009,07,29,16,11,29.20
2009,07,29,16,12,29.30
2009,07,29,16,13,29.40
2009,07,29,16,14,29.50
2009,07,29,16,15,29.70
2009,07,29,16,16,29.80
2009,07,29,16,17,30.00
2009,07,29,16,18,30.20
2009,07,29,16,19,30.50
2009,07,29,16,20,30.70
2009,07,29,16,21,30.90
2009,07,29,16,22,30.90
2009,07,29,16,23,31.00
2009,07,29,16,24,31.00
2009,07,29,16,25,31.00
2009,07,29,16,26,31.10
2009,07,29,16,27,31.10
2009,07,29,16,28,31.20
2009,07,29,16,29,31.20
2009,07,29,16,30,31.30
2009,07,29,16,31,31.40
2009,07,29,16,32,31.40
2009,07,29,16,33,31.40
2009,07,29,16,34,31.40
2009,07,29,16,35,31.50
2009,07,29,16,36,31.60
2009,07,29,16,37,31.60
2009,07,29,16,38,31.50
2009,07,29,16,39,31.40
2009,07,29,16,40,31.40
2009,07,29,16,41,31.30
2009,07,29,16,42,31.20
2009,07,29,16,43,31.00
2009,07,29,16,44,30.90
2009,07,29,16,45,30.70
2009,07,29,16,46,30.40
2009,07,29,16,47,30.10
2009,07,29,16,48,29.90
2009,07,29,16,49,29.70
2009,07,29,16,50,29.50
2009,07,29,16,51,29.30
2009,07,29,16,52,29.10
2009,07,29,16,53,28.90
2009,07,29,16,54,28.50
2009,07,29,16,55,27.90
2009,07,29,16,56,27.30
2009,07,29,16,57,26.90
2009,07,29,16,58,26.40
2009,07,29,16,59,25.90
2009,07,29,17,00,25.50
2009,07,29,17,01,25.30
2009,07,29,17,02,25.20
2009,07,29,17,03,25.10
2009,07,29,17,04,25.00
2009,07,29,17,05,25.00
2009,07,29,17,06,25.20
2009,07,29,17,07,25.30
2009,07,29,17,08,25.40
2009,07,29,17,09,25.50
2009,07,29,17,10,25.50
2009,07,29,17,11,25.70
2009,07,29,17,12,25.90
2009,07,29,17,13,26.00
2009,07,29,17,14,26.10
2009,07,29,17,15,26.30
2009,07,29,17,16,26.50
2009,07,29,17,17,26.60
2009,07,29,17,18,26.60
2009,07,29,17,19,26.60